Regional Weather Roundup
Issued by NWS

Home | Current Version | Previous Version | Graphics & Text | Print | Product List | Glossary On
Versions: 1 2 3 4 5 6 7 8 9 10 11 12 13 14 15 16 17 18 19 20 21 22 23 24 25 26 27 28 29 30 31 32 33 34 35 36 37 38 39 40 41 42 43 44 45 46 47 48 49 50
000
ASUS43 KLMK 260710
RWRKY
KENTUCKY REGIONAL WEATHER ROUNDUP
NATIONAL WEATHER SERVICE LOUISVILLE KY
200 AM EST FRI DEC 26 2014

NOTE "FAIR" INDICATES FEW OR NO CLOUDS BELOW 12,000 FEET
WITH NO SIGNIFICANT WEATHER AND/OR OBSTRUCTIONS TO VISIBILITY.

KYZ001>023-026-027-061>063-070>075-260800-
WESTERN AND SOUTH CENTRAL KENTUCKY

CITY           SKY/WX    TMP DP  RH WIND       PRES   REMARKS
PADUCAH        CLEAR     42  34  73 VRB6      30.14R
HENDERSON      PTCLDY    39  30  70 S7        30.15S WCI  34
OWENSBORO      CLEAR     38  34  85 S8        30.18S WCI  32
HOPKINSVILLE   CLEAR     36  32  87 SE5       30.18S WCI  32
BOWLING GREEN  PTCLDY    30  27  88 CALM      30.21S
GLASGOW        CLEAR     34  32  93 CALM      30.21S
$$

KYZ024-025-028>034-038-045-046-053-260800-
NORTH CENTRAL KENTUCKY

CITY           SKY/WX    TMP DP  RH WIND       PRES   REMARKS
LOUISVILLE/SDF PTCLDY    33  30  88 SE6       30.19R WCI  28
LOUISVILLE/LOU CLEAR     32  29  88 CALM      30.20R
FORT KNOX      CLEAR     34  31  88 S6        30.18R WCI  29
$$

KYZ035>037-039>044-047>052-055>060-089>105-260800-
NORTHEAST KENTUCKY

CITY           SKY/WX    TMP DP  RH WIND       PRES   REMARKS
LEXINGTON      CLEAR     31  29  92 S5        30.19F WCI  26
COVINGTON      CLEAR     31  26  82 S5        30.17S WCI  26
FRANKFORT      CLEAR     31  28  89 CALM      30.19R
$$

KYZ054-064>069-076>088-106>120-260800-
SOUTHEAST KENTUCKY

CITY           SKY/WX    TMP DP  RH WIND       PRES   REMARKS
JACKSON        CLEAR     35  30  82 S5        30.21S WCI  31
LONDON         CLEAR     30  25  81 CALM      30.22S
SOMERSET       CLEAR     30  30 100 CALM      30.25R
MIDDLESBORO    CLEAR     29  28  99 CALM      30.26F
MONTICELLO     SUNNY     26  25  96 CALM      30.26R
$$



USA.gov is the U.S. government's official web portal to all federal, state and local government web resources and services.